EST,Max TemperatureF,Mean TemperatureF,Min TemperatureF,Max Dew PointF,MeanDew PointF,Min DewpointF,Max Humidity, Mean Humidity, Min Humidity, Max Sea Level PressureIn, Mean Sea Level PressureIn, Min Sea Level PressureIn, Max VisibilityMiles, Mean VisibilityMiles, Min VisibilityMiles, Max Wind SpeedMPH, Mean Wind SpeedMPH, Max Gust SpeedMPH,PrecipitationIn, CloudCover, Events, WindDirDegrees
2013-11-1,60,54,48,57,49,39,100,81,52,29.85,29.80,29.74,10,9,0,30,16,40,0.42,5,Fog-Rain,253
2013-11-2,51,44,37,41,36,28,87,72,50,29.96,29.83,29.77,10,10,10,22,14,32,0.00,2,Rain,283
2013-11-3,42,38,33,36,30,21,100,78,56,30.39,30.18,29.96,10,10,0,17,11,25,0.00,4,Fog-Rain-Snow,315
2013-11-4,39,34,28,27,24,19,80,67,56,30.51,30.47,30.38,10,10,10,9,5,,0.00,0,,116
2013-11-5,44,37,30,45,28,-6,100,73,16,30.55,30.50,30.47,10,6,0,12,6,17,0.00,4,Fog-Rain,175
2013-11-6,57,50,44,52,46,45,100,89,67,30.47,30.33,30.16,10,6,0,17,10,23,0.00,4,Fog-Rain,189
2013-11-7,53,40,28,48,38,21,100,84,69,30.16,30.05,30.01,10,8,0,24,16,36,0.06,6,Rain,275
2013-11-8,37,32,28,25,21,19,86,67,48,30.28,30.18,30.08,10,10,10,20,14,32,0.00,2,,293
2013-11-9,48,39,30,25,21,18,69,49,32,30.28,30.21,30.11,10,10,10,24,11,33,0.00,0,,236
2013-11-10,48,39,30,32,25,21,81,59,37,30.26,30.13,30.06,10,10,10,30,22,40,0.00,0,,283
2013-11-11,53,40,28,25,17,1,86,42,16,30.30,30.22,30.08,10,10,10,24,14,28,0.00,1,,261
2013-11-12,48,32,17,32,19,10,93,70,25,30.32,30.16,30.01,10,10,10,24,18,32,0.00,5,Snow,310
2013-11-13,30,22,15,16,10,1,93,65,29,30.39,30.35,30.28,10,10,2,24,15,36,0.00,2,Snow,296
2013-11-14,46,35,24,16,9,1,54,33,27,30.36,30.32,30.27,10,10,10,24,17,28,0.00,0,,268
2013-11-15,51,45,39,41,19,9,100,42,22,30.30,30.25,30.22,10,10,0,17,12,24,0.20,3,Rain,253
2013-11-16,53,48,42,48,45,43,100,93,77,30.31,30.27,30.24,10,6,0,15,7,23,0.00,6,Fog-Rain,196
2013-11-17,55,50,46,55,49,46,100,100,100,30.26,30.10,29.86,10,0,0,21,9,31,0.16,8,Rain,188
2013-11-18,55,44,33,55,32,23,100,64,37,29.97,29.91,29.85,10,10,0,32,21,46,0.07,2,Rain,280
2013-11-19,35,30,24,25,22,19,86,72,56,30.27,30.11,29.96,10,10,10,25,16,34,0.00,2,,316
2013-11-20,35,28,21,21,19,18,93,71,52,30.42,30.35,30.27,10,10,10,13,9,18,0.00,1,,101
2013-11-21,48,38,28,45,38,21,100,93,74,30.48,30.43,30.39,10,8,0,18,9,25,0.00,5,Fog-Snow,190
2013-11-22,51,48,44,52,49,45,100,99,87,30.39,30.24,30.13,10,6,0,20,13,28,0.07,7,Rain,256
2013-11-23,42,28,15,43,26,9,100,80,48,30.18,30.11,30.05,10,9,0,26,14,43,0.00,5,Fog-Snow,296
2013-11-24,17,12,6,9,1,-2,79,63,42,30.33,30.23,30.11,10,10,7,24,16,41,0.00,2,Snow,308
2013-11-25,33,20,8,18,2,-17,79,46,17,30.35,30.29,30.24,10,10,10,20,9,,0.00,2,,248
2013-11-26,39,32,26,39,36,23,100,99,86,30.24,29.97,29.64,10,2,0,25,12,37,2.40,8,Fog-Rain-Snow,183
2013-11-27,39,26,12,39,22,9,100,95,85,29.94,29.67,29.57,10,5,0,30,20,43,0.05,8,Rain-Snow,294
2013-11-28,26,19,12,16,13,9,100,78,55,30.33,30.19,29.96,10,10,3,26,18,38,0.00,2,Snow,270
2013-11-29,33,26,19,19,17,12,86,71,48,30.55,30.45,30.32,10,10,10,20,12,25,0.00,1,,294
2013-11-30,33,25,17,21,19,16,100,82,60,30.53,30.43,30.27,10,10,10,13,6,,0.00,0,,161